| time (UTC) | temp F | wind direction | speed knots | gust knots | rain 1hr in | rain 24hr in | rain mn in | humidity % | barometer mb |
| 20260506084537 | 53 | 13 | 6.1 | 11.3 | 0.00 | 0.00 | 0.00 | 61 | 1015.2 |
| 20260506083031 | 53 | 39 | 7.0 | 13.9 | 0.00 | 0.00 | 0.00 | 60 | 1015.3 |
| 20260506081530 | 52 | 58 | 5.2 | 11.3 | 0.00 | 0.00 | 0.00 | 59 | 1015.3 |
| 20260506073024 | 51 | 86 | 6.1 | 10.4 | 0.00 | 0.00 | 0.00 | 62 | 1015.2 |
| 20260506071521 | 50 | 53 | 5.2 | 8.7 | 0.00 | 0.00 | 0.00 | 64 | 1015.3 |
| 20260506061509 | 47 | 81 | 1.7 | 5.2 | 0.00 | 0.00 | 0.00 | 78 | 1015.1 |
| 20260506050103 | 41 | 46 | 2.6 | 5.2 | 0.00 | 0.00 | 0.00 | 89 | 1014.8 |
| 20260506044553 | 40 | 59 | 2.6 | 5.2 | 0.00 | 0.00 | 0.00 | 89 | 1014.8 |
| 20260506043050 | 40 | 48 | 2.6 | 7.0 | 0.00 | 0.00 | 0.00 | 89 | 1014.6 |
| 20260506041545 | 38 | 70 | 1.7 | 6.1 | 0.00 | 0.00 | 0.00 | 87 | 1014.8 |
| 20260506033035 | 32 | 51 | 0.9 | 3.5 | 0.00 | 0.00 | 0.00 | 88 | 1014.6 |
| 20260506031533 | 31 | 58 | 1.7 | 4.3 | 0.00 | 0.00 | 0.00 | 88 | 1014.6 |
| 20260506030131 | 31 | 61 | 2.6 | 3.5 | 0.00 | 0.00 | 0.00 | 88 | 1014.5 |
| 20260506023021 | 31 | 53 | 1.7 | 3.5 | 0.00 | 0.00 | 0.00 | 87 | 1014.4 |
| 20260506021521 | 31 | 60 | 0.0 | 1.7 | 0.00 | 0.00 | 0.00 | 88 | 1014.4 |
| 20260506020017 | 31 | 60 | 0.0 | 3.5 | 0.00 | 0.00 | 0.00 | 87 | 1014.3 |
| 20260506014516 | 31 | 61 | 0.9 | 2.6 | 0.00 | 0.00 | 0.00 | 87 | 1014.2 |
| 20260506013022 | 32 | 60 | 0.9 | 1.7 | 0.00 | 0.00 | 0.00 | 88 | 1014.0 |
| 20260506011513 | 32 | 61 | 0.9 | 3.5 | 0.00 | 0.00 | 0.00 | 88 | 1013.9 |
| 20260506010112 | 31 | 66 | 1.7 | 3.5 | 0.00 | 0.00 | 0.00 | 89 | 1013.7 |
| 20260506004511 | 31 | 93 | 1.7 | 2.6 | 0.00 | 0.00 | 0.00 | 89 | 1013.7 |
| 20260506003009 | 32 | 134 | 0.0 | 1.7 | 0.00 | 0.00 | 0.00 | 89 | 1013.9 |
| 20260506001507 | 32 | 134 | 0.9 | 2.6 | 0.00 | 0.00 | 0.00 | 90 | 1013.9 |
| 20260506000005 | 32 | 144 | 0.9 | 2.6 | 0.00 | 0.00 | 0.00 | 90 | 1013.7 |
| 20260505234504 | 32 | 177 | 0.0 | 1.7 | 0.00 | 0.00 | 0.00 | 90 | 1013.8 |
| 20260505233102 | 32 | 184 | 0.0 | 0.0 | 0.00 | 0.00 | 0.00 | 91 | 1013.9 |
| 20260505231558 | 33 | 190 | 0.0 | 0.0 | 0.00 | 0.00 | 0.00 | 91 | 1014.0 |
| 20260505230105 | 33 | 203 | 0.0 | 0.0 | 0.00 | 0.00 | 0.00 | 91 | 1013.9 |
| 20260505224554 | 34 | 203 | 0.0 | 0.0 | 0.00 | 0.00 | 0.00 | 92 | 1014.0 |
| 20260505223102 | 34 | 203 | 0.0 | 0.0 | 0.00 | 0.00 | 0.00 | 92 | 1013.9 |
| 20260505221550 | 35 | 206 | 0.0 | 0.0 | 0.00 | 0.00 | 0.00 | 92 | 1014.0 |
| 20260505220046 | 35 | 206 | 0.0 | 0.0 | 0.00 | 0.00 | 0.00 | 92 | 1013.8 |
| 20260505214543 | 36 | 206 | 0.0 | 0.0 | 0.00 | 0.00 | 0.00 | 92 | 1013.7 |
| 20260505213052 | 37 | 206 | 0.0 | 0.0 | 0.00 | 0.00 | 0.00 | 93 | 1013.6 |
| 20260505211538 | 37 | 206 | 0.9 | 1.7 | 0.00 | 0.00 | 0.00 | 94 | 1013.5 |
| 20260505210034 | 38 | 206 | 0.9 | 1.7 | 0.00 | 0.00 | 0.00 | 96 | 1013.4 |
| 20260505204531 | 39 | 207 | 0.0 | 0.0 | 0.00 | 0.00 | 0.00 | 96 | 1013.4 |
| 20260505203040 | 40 | 207 | 0.0 | 0.0 | 0.00 | 0.00 | 0.00 | 95 | 1013.3 |
| 20260505201525 | 40 | 207 | 0.0 | 0.0 | 0.00 | 0.00 | 0.00 | 96 | 1013.0 |
| 20260505200031 | 41 | 207 | 0.0 | 0.0 | 0.00 | 0.00 | 0.00 | 96 | 1012.8 |
| 20260505194519 | 42 | 207 | 0.0 | 0.0 | 0.00 | 0.00 | 0.00 | 97 | 1012.7 |
| 20260505193018 | 43 | 207 | 0.0 | 0.0 | 0.00 | 0.00 | 0.00 | 97 | 1012.6 |
| 20260505191516 | 44 | 207 | 0.0 | 1.7 | 0.00 | 0.00 | 0.00 | 97 | 1012.6 |
| 20260505190015 | 46 | 207 | 0.9 | 1.7 | 0.00 | 0.00 | 0.00 | 96 | 1012.4 |
| 20260505184519 | 46 | 207 | 0.0 | 1.7 | 0.00 | 0.00 | 0.00 | 96 | 1012.3 |
| 20260505183013 | 47 | 207 | 0.9 | 2.6 | 0.00 | 0.00 | 0.00 | 96 | 1012.1 |
| 20260505181512 | 48 | 207 | 0.9 | 2.6 | 0.00 | 0.00 | 0.00 | 96 | 1011.9 |
| 20260505180011 | 49 | 207 | 1.7 | 3.5 | 0.00 | 0.00 | 0.00 | 95 | 1011.8 |
| 20260505174515 | 50 | 243 | 1.7 | 3.5 | 0.00 | 0.00 | 0.00 | 94 | 1011.8 |
| 20260505173030 | 50 | 278 | 0.9 | 3.5 | 0.00 | 0.00 | 0.00 | 93 | 1011.7 |
| 20260505171509 | 51 | 229 | 2.6 | 3.5 | 0.00 | 0.00 | 0.00 | 92 | 1011.7 |
| 20260505170013 | 51 | 221 | 1.7 | 4.3 | 0.00 | 0.00 | 0.00 | 92 | 1011.6 |
| 20260505164524 | 51 | 229 | 2.6 | 6.1 | 0.00 | 0.00 | 0.00 | 90 | 1011.6 |
| 20260505163013 | 51 | 236 | 2.6 | 5.2 | 0.00 | 0.00 | 0.00 | 91 | 1011.5 |
| 20260505161508 | 52 | 221 | 2.6 | 7.0 | 0.00 | 0.00 | 0.00 | 89 | 1011.5 |
| 20260505153010 | 52 | 243 | 4.3 | 7.8 | 0.00 | 0.00 | 0.00 | 88 | 1011.6 |
| 20260505151505 | 52 | 238 | 5.2 | 8.7 | 0.00 | 0.00 | 0.00 | 89 | 1011.7 |
| 20260505130104 | 52 | 238 | 4.3 | 7.8 | 0.00 | 0.00 | 0.00 | 91 | 1011.8 |
| 20260505124559 | 53 | 242 | 4.3 | 7.8 | 0.00 | 0.00 | 0.00 | 90 | 1011.7 |
| 20260505123106 | 53 | 232 | 4.3 | 7.8 | 0.00 | 0.00 | 0.00 | 89 | 1011.6 |
| 20260505121556 | 53 | 239 | 4.3 | 7.8 | 0.00 | 0.00 | 0.00 | 89 | 1011.6 |
| 20260505120057 | 53 | 222 | 4.3 | 9.6 | 0.00 | 0.00 | 0.00 | 89 | 1011.4 |
| 20260505114554 | 53 | 225 | 5.2 | 8.7 | 0.00 | 0.00 | 0.00 | 87 | 1011.5 |
| 20260505113058 | 53 | 225 | 4.3 | 7.8 | 0.00 | 0.00 | 0.00 | 87 | 1011.4 |
| 20260505111555 | 52 | 234 | 2.6 | 6.1 | 0.00 | 0.00 | 0.00 | 89 | 1011.4 |
| 20260505101537 | 51 | 236 | 3.5 | 7.0 | 0.00 | 0.00 | 0.00 | 88 | 1011.1 |
| 20260505100042 | 50 | 229 | 4.3 | 8.7 | 0.00 | 0.00 | 0.00 | 90 | 1011.1 |
| 20260505094533 | 50 | 236 | 4.3 | 7.8 | 0.00 | 0.00 | 0.00 | 91 | 1011.1 |
| 20260505093133 | 50 | 244 | 3.5 | 9.6 | 0.00 | 0.00 | 0.00 | 91 | 1011.1 |
| 20260505091534 | 50 | 276 | 3.5 | 8.7 | 0.00 | 0.00 | 0.00 | 88 | 1011.0 |
| 20260505090044 | 49 | 271 | 4.3 | 8.7 | 0.00 | 0.00 | 0.00 | 90 | 1010.9 |